Погода в Тынде

Погода в Тынде : погода сейчас, прогноз погоды и архив. Всё, что Вы хотите узнать о погоде в Тынде!

Хотите узнать прогноз погоды в Тынде? Тогда Вам сюда: Погода в Тынде

Поиск расширенной информации на нашем сайте:

Другие новости

Новости СМИ2

Главная страница сайта

Новости сайта

03.07.2017

Напоминаем, что на нашем специализированном сайте Метеоцентр.Азия вы можете получить высокодетализированные автоматические прогнозы погоды по пунктам России, СНГ и мира в авиационном формате (включающие направление и скорость ветра, видимость, явления погоды, количество и форму облачности, нижнюю и верхнюю границу облачности).


Погода в Тынде - сегодня

Время (UTC), дата Ветер
(°,м/с) 
Видим.   Явления Облачность Т
(°С)
Тd
(°С)
f(%) Тe
(°С)
Pmin
(гПа)
dP
(гПа)
Po
(мм)
O2
(г/м3)
Тmin Tmax R s Состояние
почвы
21 16.10.18 250 (З) 20000 м    ясно 
-8.9 -11.9 79 -11  1026.5  719  301           
03 17.10.18 270 (З) 20000 м    ясно 
+4 -9.7 36 +3  1021.8  -1.6  718  286           
06 17.10.18 240 (ЮЗ) 20000 м    ясно 
+10 -7.8 28 +10  1018.3  -1.9  717  279           
09 17.10.18 280 (З) 20000 м    ясно 
+6.3 -7.3 37 +6  1018.8  -0.3  717  283           
12 17.10.18 250 (З) 20000 м    ясно 
-0.3 -7.1 60 -1  1021.2  0.7  717  290    +10.7       
15 17.10.18 250 (З) 20000 м    ясно 
-3.5 -7.7 73 -6  1021.7  -0.2  717  293           
18 17.10.18 250 (З) 20000 м    8/0 средняя, верхняя 
[Ac trans|Cs]
-4.2 -8 75 -5  1021.6  -0.3  717  294           
21 17.10.18 270 (З) 20000 м    10/4 600 м средняя 
[Sc|Ac As]
-4.4 -7.9 77 -6  1021.3  -0.3  717  294           
00 18.10.18 250 (З) 20000 м    10/3 600 м средняя 
[Sc|Ac As]
-2.8 -7.2 72 -4  1020.7  -0.2  716  292  -4.9        замёрзшая 
03 18.10.18 230 (ЮЗ) 20000 м    10/0 средняя 
[Ac As]
+3.4 -6.2 49 +4  1018.3  -0.9  716  285           
06 18.10.18 240 (ЮЗ) 20000 м    10/0 средняя 
[Ac trans]
+7.7 -6.3 36 +9  1015  -2.1  714  280           
09 18.10.18 300 (СЗ) 20000 м    10/0 средняя 
[Ac trans]
+6.3 -7.2 37 +7  1016.7  1.3  715  282           
15 18.10.18 340 (С) 20000 м    3/0 средняя 
[Ac trans]
+1.2 -3.6 70 +2  1021.2  1.4  718  288           
18 18.10.18 тихо ()   20000 м    ясно 
-2.1 -4.6 83 -2  1023.1  718  292           
21 18.10.18 260 (З) 20000 м    ясно 
-4.9 -6.2 91 -7  1024.2  0.3  719  295           
00 19.10.18 240 (ЮЗ) 20000 м    10/0 верхняя 
[Cs]
-4.8 -6.4 89 -6  1024.5  0.3  719  295  -6.6        замёрзшая 
03 19.10.18 230 (ЮЗ) 20000 м    10/0 средняя 
[Ac As]
+2.7 -4.1 61 +3  1021.1  -1.4  718  287           
06 19.10.18 180 (Ю) 20000 м    4/0 верхняя 
[Ci fib]
+6.9 -7.1 36 +8  1017.1  -2.9  716  282           
09 19.10.18 тихо ()   20000 м    3/0 верхняя 
[Ci fib]
+3 -7.8 45 +3  1017.2  -0.8  715  286           
15 19.10.18 270 (З) 20000 м    8/0 верхняя 
[Ci fib]
-1.6 -7.4 65 -3  1020.4  0.9  716  291           
18 19.10.18 тихо ()   20000 м    8/0 верхняя 
[Ci fib]
-1.8 -7.1 67 -2  1021.8  1.3  717  292           
21 19.10.18 240 (ЮЗ) 20000 м    10/0 верхняя 
[Ci fib]
-1.9 -6.3 72 -1  1022.6  0.7  718  292           
00 20.10.18 260 (З) 20000 м    10/10 600 м 
[Sc]
-1.4 -6 71 -1  1023.7  1.2  719  292  -2.5        замёрзшая 
03 20.10.18 350 (С) 20000 м    6/4 600 м средняя 
[Cu Sc|Ac cast]
+4.3 -7.6 42 +3  1022.2  0.1  719  286           
06 20.10.18 030 (СВ) 20000 м    4/0 средняя, верхняя 
[Ac trans|Ci sp]
+5.3 -9.3 34 +6  1020.9  -1  718  285           
Время (UTC), дата Ветер
(°,м/с) 
Видим.   Явления Облачность Т
(°С)
Тd
(°С)
f(%) Тe
(°С)
Pmin
(гПа)
dP
(гПа)
Po
(мм)
O2
(г/м3)
Тmin Tmax R s Состояние
почвы

Для получения пояснительной информации подведите курсор к названию столбца.

ПОГОДА в Тынде - архив

Всё, что Вы хотите узнать о погоде в Тынде - удобно и подробно!

Выберите нужную дату (начиная с 1 января 2015* года) и нажмите кнопку "Найти".
Будут отображены архивные сводки погоды по пункту Тында, начиная с указанной даты.


Отображать данные в формате CSV (для использования в таблицах Excel)


Внимание! Наш архив погоды предназначен исключительно для личного некоммерческого использования в познавательных целях. Если Вам необходимы официальные справки о состоянии погоды (для производственных, юридических, коммерческих и т.п. целей), обращайтесь в органы Росгидромета.

*Примечание: данная дата относится к архиву по метеостанциям СССР (Россия, СНГ, Балтия).
Архив по метеостанциям Зарубежной Европы и Азии (кроме Китая) хранится 10 дней, по другим регионам земного шара (Китай, Африка, Америка, Австралия, Океания) - 1 день.

Тында - район местоположения метеостанции


Название, широта, долгота, высота метеостанции:
Тында 55.2°ш. 124.7°д. 528 м над ур. моря [Российская Федерация]

Дополнительная информация

В oтличие oт бoльшинства пoгoдных сайтoв мы публикуем пoдрoбную метеoинфoрмацию в детальнoм прoфессиoнальнoм фoрмате.

Характеристики температуры и влажнoсти вoздуха измеряются на высoте 2 м в тени вдали oт зданий и деревьев.
Скoрoсть ветра измеряется на высoте 10 м (на урoвне рoста челoвека скoрoсть ветра ниже в 1.5-2 раза). Если метеoстанция нахoдится в гoрoде или в лесу, тo скoрoсть ветра занижена на 2-4 м/с пo сравнению с oткрытым местoм. Скoрoсть ветра над акватoриями крупных рек и oзёр, а также на вершинах хoлмoв на 2-5 м/с выше, чем в oбычных услoвиях.
Атмoсфернoе давление в разных тoчках местнoсти мoжет значительнo oтличаться oт давления на метеoстанции, в зависимoсти oт услoвий рельефа (при пoдъёме на 10 м давление пoнижается примернo на 1 мм рт.ст.).